LOT616 LJLJ-EPWA

Flight info

Callsign LOT616
Flight time 1h 9m
Altitude 36000
Route LUPI2E LUPIX DCT LAPNA DCT ABLOM DCT MEBAN DCT ORTEB DCT KONZI DCT LOGDA LOGD6U
Aircraft B738/M-VGDW/C

Departure

Time 2026-05-08 10:16
Airport Ljubljana Jože Pučnik Airport (LJLJ)

Arrival

Time 2026-05-08 11:25
Airport Warsaw Chopin Airport (EPWA)
Time Latitude Longitude Altitude Speed Heading
2026-05-08 10:05 46.23051 14.45378 1259 ft 0 kts 34°
2026-05-08 10:07 46.23040 14.45367 1259 ft 2 kts 34°
2026-05-08 10:07 46.23026 14.45354 1258 ft 2 kts 34°
2026-05-08 10:08 46.23012 14.45340 1257 ft 2 kts 26°
2026-05-08 10:08 46.22997 14.45334 1256 ft 2 kts 345°
2026-05-08 10:08 46.22989 14.45338 1256 ft 0 kts 319°
2026-05-08 10:13 46.23014 14.45292 1256 ft 10 kts 309°
2026-05-08 10:13 46.23038 14.45237 1256 ft 1 kts 275°
2026-05-08 10:13 46.23002 14.45173 1250 ft 14 kts 227°
2026-05-08 10:13 46.22984 14.45040 1248 ft 14 kts 295°
2026-05-08 10:14 46.23041 14.44913 1254 ft 16 kts 303°
2026-05-08 10:14 46.23119 14.44760 1248 ft 21 kts 307°
2026-05-08 10:14 46.23203 14.44586 1252 ft 22 kts 305°
2026-05-08 10:14 46.23296 14.44413 1254 ft 22 kts 309°
2026-05-08 10:15 46.23346 14.44317 1252 ft 11 kts 298°
2026-05-08 10:15 46.23382 14.44190 1253 ft 16 kts 270°
2026-05-08 10:15 46.23314 14.44085 1249 ft 16 kts 192°
2026-05-08 10:15 46.23250 14.44076 1252 ft 5 kts 155°
2026-05-08 10:16 46.23114 14.44318 1247 ft 75 kts 126°
2026-05-08 10:16 46.22632 14.45267 1259 ft 156 kts 126°
2026-05-08 10:16 46.21892 14.46704 1797 ft 188 kts 127°
2026-05-08 10:16 46.21113 14.48229 3103 ft 189 kts 126°
2026-05-08 10:17 46.20319 14.49831 4169 ft 202 kts 124°
2026-05-08 10:17 46.19469 14.51598 4740 ft 224 kts 124°
2026-05-08 10:17 46.18553 14.53472 5295 ft 234 kts 125°
2026-05-08 10:17 46.17566 14.55370 5841 ft 238 kts 127°
2026-05-08 10:18 46.16561 14.57256 6319 ft 238 kts 127°
2026-05-08 10:18 46.15537 14.59188 6815 ft 249 kts 126°
2026-05-08 10:18 46.14452 14.61255 7317 ft 267 kts 126°
2026-05-08 10:18 46.13310 14.63446 7833 ft 277 kts 126°
2026-05-08 10:19 46.12145 14.65689 8346 ft 281 kts 127°
2026-05-08 10:19 46.10974 14.67950 8853 ft 282 kts 127°
2026-05-08 10:19 46.09796 14.70231 9356 ft 284 kts 127°
2026-05-08 10:20 46.07415 14.74834 10364 ft 291 kts 127°
2026-05-08 10:20 46.06172 14.77226 10892 ft 305 kts 127°
2026-05-08 10:20 46.05137 14.79956 11375 ft 321 kts 104°
2026-05-08 10:20 46.05106 14.83207 11907 ft 334 kts 76°
2026-05-08 10:21 46.06052 14.86309 12537 ft 343 kts 56°
2026-05-08 10:21 46.07612 14.88928 13312 ft 346 kts 44°
2026-05-08 10:21 46.09358 14.91337 14077 ft 350 kts 42°
2026-05-08 10:21 46.11167 14.93718 14810 ft 355 kts 41°
2026-05-08 10:22 46.12978 14.96095 15531 ft 359 kts 41°
2026-05-08 10:22 46.14826 14.98545 16240 ft 363 kts 41°
2026-05-08 10:22 46.16681 15.01036 16924 ft 367 kts 42°
2026-05-08 10:22 46.18556 15.03578 17591 ft 371 kts 42°
2026-05-08 10:23 46.20443 15.06156 18235 ft 375 kts 42°
2026-05-08 10:23 46.22346 15.08766 18858 ft 379 kts 42°
2026-05-08 10:23 46.24267 15.11407 19455 ft 384 kts 42°
2026-05-08 10:23 46.26213 15.14089 20039 ft 389 kts 42°
2026-05-08 10:24 46.28178 15.16801 20613 ft 393 kts 42°
2026-05-08 10:24 46.30166 15.19547 21160 ft 398 kts 42°
2026-05-08 10:24 46.32180 15.22332 21713 ft 402 kts 41°
2026-05-08 10:24 46.34210 15.25142 22243 ft 406 kts 41°
2026-05-08 10:25 46.36260 15.27983 22754 ft 410 kts 41°
2026-05-08 10:25 46.38331 15.30856 23266 ft 414 kts 41°
2026-05-08 10:25 46.40424 15.33762 23762 ft 418 kts 41°
2026-05-08 10:25 46.42537 15.36700 24211 ft 423 kts 41°
2026-05-08 10:26 46.44641 15.39628 24651 ft 427 kts 41°
2026-05-08 10:26 46.46796 15.42632 25088 ft 431 kts 41°
2026-05-08 10:26 46.48968 15.45661 25497 ft 435 kts 41°
2026-05-08 10:26 46.51160 15.48722 25919 ft 439 kts 41°
2026-05-08 10:27 46.53383 15.51782 26309 ft 442 kts 38°
2026-05-08 10:27 46.55830 15.54500 26679 ft 443 kts 31°
2026-05-08 10:27 46.58383 15.57035 27083 ft 446 kts 30°
2026-05-08 10:27 46.60978 15.59550 27482 ft 449 kts 30°
2026-05-08 10:28 46.63592 15.62076 27856 ft 453 kts 30°
2026-05-08 10:28 46.66223 15.64633 28215 ft 457 kts 30°
2026-05-08 10:28 46.68869 15.67226 28557 ft 460 kts 30°
2026-05-08 10:28 46.71529 15.69852 28894 ft 463 kts 30°
2026-05-08 10:29 46.74198 15.72503 29232 ft 466 kts 30°
2026-05-08 10:29 46.76887 15.75182 29538 ft 470 kts 31°
2026-05-08 10:29 46.79599 15.77890 29858 ft 472 kts 31°
2026-05-08 10:29 46.82279 15.80571 30137 ft 476 kts 31°
2026-05-08 10:30 46.85018 15.83313 30420 ft 479 kts 30°
2026-05-08 10:30 46.87769 15.86071 30771 ft 480 kts 30°
2026-05-08 10:30 46.90515 15.88828 31121 ft 480 kts 30°
2026-05-08 10:30 46.93281 15.91607 31429 ft 482 kts 30°
2026-05-08 10:31 46.96047 15.94390 31713 ft 484 kts 30°
2026-05-08 10:31 46.98824 15.97186 32000 ft 485 kts 30°
2026-05-08 10:31 47.01608 15.99993 32280 ft 486 kts 30°
2026-05-08 10:31 47.04398 16.02810 32596 ft 486 kts 30°
2026-05-08 10:32 47.07174 16.05618 33018 ft 483 kts 30°
2026-05-08 10:32 47.09932 16.08412 33423 ft 481 kts 30°
2026-05-08 10:32 47.12682 16.11200 33782 ft 479 kts 30°
2026-05-08 10:32 47.15424 16.13982 34108 ft 478 kts 30°
2026-05-08 10:33 47.18158 16.16760 34429 ft 478 kts 30°
2026-05-08 10:33 47.20893 16.19542 34697 ft 478 kts 30°
2026-05-08 10:33 47.23623 16.22322 34961 ft 478 kts 30°
2026-05-08 10:33 47.26359 16.25111 35218 ft 478 kts 30°
2026-05-08 10:34 47.29090 16.27900 35494 ft 477 kts 30°
2026-05-08 10:34 47.31813 16.30684 35788 ft 477 kts 30°
2026-05-08 10:34 47.34538 16.33474 36056 ft 476 kts 30°
2026-05-08 10:35 47.40027 16.39101 36108 ft 485 kts 31°
2026-05-08 10:35 47.45619 16.44849 36110 ft 494 kts 31°
2026-05-08 10:36 47.51290 16.50697 36112 ft 501 kts 31°
2026-05-08 10:36 47.57030 16.56634 36104 ft 505 kts 31°
2026-05-08 10:37 47.62789 16.62609 36087 ft 505 kts 31°
2026-05-08 10:37 47.68498 16.68548 36088 ft 504 kts 31°
2026-05-08 10:38 47.74242 16.74536 36091 ft 504 kts 31°
2026-05-08 10:38 47.79981 16.80536 36093 ft 504 kts 31°
2026-05-08 10:39 47.85722 16.86554 36092 ft 504 kts 31°
2026-05-08 10:39 47.91449 16.92575 36093 ft 504 kts 31°
2026-05-08 10:40 47.97184 16.98622 36090 ft 504 kts 31°
2026-05-08 10:40 48.02907 17.04672 36083 ft 504 kts 31°
2026-05-08 10:41 48.08373 17.11274 36073 ft 510 kts 45°
2026-05-08 10:41 48.12985 17.19355 36077 ft 511 kts 48°
2026-05-08 10:42 48.17504 17.27580 36072 ft 511 kts 48°
2026-05-08 10:42 48.22057 17.35778 36074 ft 511 kts 47°
2026-05-08 10:43 48.26631 17.43936 36073 ft 511 kts 47°
2026-05-08 10:43 48.31181 17.52046 36075 ft 511 kts 47°
2026-05-08 10:44 48.35749 17.60217 36075 ft 511 kts 47°
2026-05-08 10:44 48.40312 17.68409 36074 ft 511 kts 47°
2026-05-08 10:45 48.44867 17.76616 36073 ft 511 kts 47°
2026-05-08 10:45 48.49418 17.84842 36079 ft 511 kts 47°
2026-05-08 10:46 48.53965 17.93085 36070 ft 511 kts 47°
2026-05-08 10:46 48.58507 18.01343 36075 ft 511 kts 47°
2026-05-08 10:47 48.63046 18.09622 36075 ft 511 kts 48°
2026-05-08 10:47 48.67579 18.17916 36077 ft 511 kts 48°
2026-05-08 10:48 48.72108 18.26230 36071 ft 511 kts 48°
2026-05-08 10:48 48.76628 18.34552 36074 ft 511 kts 48°
2026-05-08 10:49 48.81140 18.42884 36077 ft 511 kts 48°
2026-05-08 10:49 48.85611 18.51168 36075 ft 510 kts 49°
2026-05-08 10:50 48.90100 18.59513 36066 ft 510 kts 49°
2026-05-08 10:50 48.94611 18.67923 36061 ft 510 kts 49°
2026-05-08 10:51 48.99062 18.76246 36051 ft 509 kts 49°
2026-05-08 10:51 49.03530 18.84630 36052 ft 509 kts 49°
2026-05-08 10:52 49.07233 18.91598 36052 ft 509 kts 49°
2026-05-08 10:52 49.11682 18.99992 36053 ft 509 kts 49°
2026-05-08 10:53 49.16127 19.08407 36052 ft 508 kts 50°
2026-05-08 10:53 49.20555 19.16817 36057 ft 507 kts 50°
2026-05-08 10:54 49.24978 19.25244 36065 ft 507 kts 50°
2026-05-08 10:54 49.29391 19.33676 36067 ft 507 kts 50°
2026-05-08 10:55 49.33794 19.42120 36079 ft 508 kts 50°
2026-05-08 10:55 49.38203 19.50600 36075 ft 508 kts 50°
2026-05-08 10:56 49.42604 19.59091 36079 ft 508 kts 51°
2026-05-08 10:56 49.47172 19.67279 36078 ft 506 kts 42°
2026-05-08 10:57 49.52372 19.74569 36080 ft 506 kts 40°
2026-05-08 10:57 49.60238 19.85422 36087 ft 506 kts 41°
2026-05-08 10:58 49.65436 19.92744 36089 ft 506 kts 41°
2026-05-08 10:58 49.70612 20.00092 36092 ft 506 kts 42°
2026-05-08 10:59 49.75786 20.07462 36095 ft 505 kts 42°
2026-05-08 10:59 49.80922 20.14792 36093 ft 505 kts 42°
2026-05-08 11:00 49.86066 20.22153 35815 ft 500 kts 42°
2026-05-08 11:00 49.88613 20.25807 35642 ft 497 kts 42°
2026-05-08 11:00 49.91148 20.29449 35465 ft 495 kts 42°
2026-05-08 11:01 49.93671 20.33080 35296 ft 494 kts 42°
2026-05-08 11:01 49.96189 20.36707 35122 ft 493 kts 42°
2026-05-08 11:01 49.98697 20.40328 34845 ft 494 kts 42°
2026-05-08 11:01 50.01232 20.43991 34325 ft 496 kts 42°
2026-05-08 11:02 50.03741 20.47622 33821 ft 489 kts 42°
2026-05-08 11:02 50.08905 20.54309 32800 ft 479 kts 28°
2026-05-08 11:02 50.11908 20.56449 32317 ft 472 kts 17°
2026-05-08 11:03 50.15069 20.57691 31774 ft 466 kts
2026-05-08 11:03 50.18289 20.58095 31163 ft 463 kts
2026-05-08 11:03 50.21472 20.58352 30548 ft 463 kts 360°
2026-05-08 11:03 50.24684 20.58597 29928 ft 462 kts
2026-05-08 11:04 50.27892 20.58864 29307 ft 461 kts
2026-05-08 11:04 50.31087 20.59159 28685 ft 459 kts
2026-05-08 11:04 50.34273 20.59475 28064 ft 457 kts
2026-05-08 11:04 50.37440 20.59802 27435 ft 455 kts
2026-05-08 11:05 50.40598 20.60132 26819 ft 453 kts
2026-05-08 11:05 50.43742 20.60461 26196 ft 451 kts
2026-05-08 11:05 50.46863 20.60787 25577 ft 449 kts
2026-05-08 11:05 50.49977 20.61111 24953 ft 446 kts
2026-05-08 11:06 50.53063 20.61432 24315 ft 444 kts
2026-05-08 11:06 50.56138 20.61752 23707 ft 441 kts
2026-05-08 11:06 50.59200 20.62071 23081 ft 438 kts
2026-05-08 11:06 50.62195 20.62384 22467 ft 436 kts
2026-05-08 11:07 50.65213 20.62699 21838 ft 433 kts
2026-05-08 11:07 50.68207 20.63013 21219 ft 430 kts
2026-05-08 11:07 50.71186 20.63325 20595 ft 427 kts
2026-05-08 11:07 50.74146 20.63636 19970 ft 424 kts
2026-05-08 11:08 50.77087 20.63945 19346 ft 421 kts
2026-05-08 11:08 50.80006 20.64252 18721 ft 418 kts
2026-05-08 11:08 50.82857 20.64553 18297 ft 411 kts
2026-05-08 11:08 50.85663 20.64851 18154 ft 396 kts
2026-05-08 11:09 50.88358 20.65137 18097 ft 381 kts
2026-05-08 11:09 50.90950 20.65413 18086 ft 366 kts
2026-05-08 11:09 50.93455 20.65678 18090 ft 361 kts
2026-05-08 11:09 50.96032 20.65947 18117 ft 381 kts
2026-05-08 11:10 50.98748 20.66229 18123 ft 400 kts
2026-05-08 11:10 51.01588 20.66527 18119 ft 418 kts
2026-05-08 11:10 51.04533 20.66839 18112 ft 427 kts
2026-05-08 11:10 51.07503 20.67158 18100 ft 428 kts
2026-05-08 11:11 51.10471 20.67477 18091 ft 427 kts
2026-05-08 11:11 51.13433 20.67795 18095 ft 427 kts
2026-05-08 11:11 51.16394 20.68112 18096 ft 426 kts
2026-05-08 11:11 51.19356 20.68429 18097 ft 427 kts
2026-05-08 11:12 51.22315 20.68746 18101 ft 427 kts
2026-05-08 11:12 51.25288 20.69065 17968 ft 429 kts
2026-05-08 11:12 51.28268 20.69426 17433 ft 428 kts
2026-05-08 11:12 51.31140 20.70545 16932 ft 423 kts 18°
2026-05-08 11:13 51.33896 20.72098 16437 ft 417 kts 19°
2026-05-08 11:13 51.36613 20.73663 15941 ft 414 kts 19°
2026-05-08 11:13 51.39318 20.75187 15443 ft 411 kts 18°
2026-05-08 11:13 51.42014 20.76660 14945 ft 408 kts 18°
2026-05-08 11:14 51.44692 20.78097 14445 ft 405 kts 18°
2026-05-08 11:14 51.47359 20.79522 13946 ft 402 kts 18°
2026-05-08 11:14 51.50001 20.80936 13439 ft 399 kts 18°
2026-05-08 11:14 51.52590 20.82330 12954 ft 396 kts 18°
2026-05-08 11:15 51.55186 20.83731 12453 ft 390 kts 18°
2026-05-08 11:15 51.57712 20.85097 11943 ft 376 kts 18°
2026-05-08 11:15 51.60174 20.86443 11441 ft 370 kts 18°
2026-05-08 11:15 51.62589 20.87816 10935 ft 366 kts 18°
2026-05-08 11:16 51.64874 20.89551 10439 ft 363 kts 30°
2026-05-08 11:16 51.66938 20.91842 10020 ft 358 kts 35°
2026-05-08 11:16 51.68913 20.94252 9559 ft 353 kts 36°
2026-05-08 11:16 51.70829 20.96648 9056 ft 342 kts 36°
2026-05-08 11:17 51.72671 20.98976 8545 ft 331 kts 36°
2026-05-08 11:17 51.74455 21.01252 8040 ft 321 kts 37°
2026-05-08 11:17 51.76180 21.03462 7541 ft 313 kts 37°
2026-05-08 11:17 51.77866 21.05626 7039 ft 306 kts 37°
2026-05-08 11:18 51.79511 21.07738 6542 ft 299 kts 37°
2026-05-08 11:18 51.81125 21.09811 6038 ft 294 kts 37°
2026-05-08 11:18 51.82712 21.11845 5543 ft 289 kts 37°
2026-05-08 11:18 51.84273 21.13845 5076 ft 285 kts 37°
2026-05-08 11:19 51.85821 21.15828 4741 ft 284 kts 37°
2026-05-08 11:19 51.87372 21.17799 4391 ft 282 kts 33°
2026-05-08 11:19 51.89164 21.18914 4062 ft 276 kts
2026-05-08 11:19 51.90988 21.18384 4021 ft 261 kts 340°
2026-05-08 11:20 51.92636 21.17422 3989 ft 249 kts 338°
2026-05-08 11:20 51.94200 21.16302 3956 ft 238 kts 333°
2026-05-08 11:20 51.95631 21.15101 3794 ft 233 kts 331°
2026-05-08 11:20 51.97041 21.13861 3636 ft 228 kts 331°
2026-05-08 11:21 51.98419 21.12644 3480 ft 223 kts 331°
2026-05-08 11:21 51.99769 21.11456 3330 ft 219 kts 331°
2026-05-08 11:21 52.01088 21.10298 3207 ft 212 kts 332°
2026-05-08 11:21 52.02390 21.09156 3083 ft 213 kts 332°
2026-05-08 11:22 52.03685 21.08019 2932 ft 209 kts 332°
2026-05-08 11:22 52.04934 21.06921 2687 ft 197 kts 332°
2026-05-08 11:22 52.06092 21.05904 2440 ft 181 kts 332°
2026-05-08 11:22 52.07160 21.04968 2209 ft 167 kts 332°
2026-05-08 11:23 52.08144 21.04104 1991 ft 157 kts 332°
2026-05-08 11:23 52.09085 21.03277 1827 ft 152 kts 332°
2026-05-08 11:23 52.10025 21.02455 1610 ft 154 kts 332°
2026-05-08 11:23 52.10967 21.01628 1403 ft 151 kts 332°
2026-05-08 11:24 52.11879 21.00826 1167 ft 147 kts 332°
2026-05-08 11:24 52.12771 21.00051 974 ft 144 kts 331°
2026-05-08 11:24 52.13654 20.99251 803 ft 147 kts 331°
2026-05-08 11:24 52.14553 20.98461 599 ft 147 kts 332°
2026-05-08 11:25 52.15452 20.97674 394 ft 142 kts 331°
2026-05-08 11:25 52.16243 20.96986 336 ft 119 kts 333°
2026-05-08 11:25 52.16844 20.96467 335 ft 77 kts 331°
2026-05-08 11:25 52.17137 20.96257 334 ft 30 kts 352°
2026-05-08 11:26 52.17339 20.96247 332 ft 28 kts
2026-05-08 11:26 52.17414 20.96336 331 ft 12 kts 58°
2026-05-08 11:26 52.17449 20.96452 333 ft 11 kts 66°
2026-05-08 11:26 52.17466 20.96566 335 ft 0 kts 106°
2026-05-08 11:27 52.17455 20.96582 335 ft 5 kts 137°
2026-05-08 11:27 52.17421 20.96631 335 ft 8 kts 114°
2026-05-08 11:27 52.17411 20.96718 335 ft 8 kts 94°
2026-05-08 11:27 52.17411 20.96750 335 ft 0 kts 91°